[[{"header":{"parameterUnit":"m.s-1","parameterCategory":1,"la1":30.2991,"la2":30.254,"lo1":-89.0895,"lo2":-89.0444,"dy":0.0017,"dx":0.0017,"nx":28,"ny":28,"refTime":"2024-05-27T21:00:00:Z","depth":0,"parameterNumber":2,"parameterNumberName":"U-component_of_WINDS"},"data":[0,0,0,0,0,0,0,0,0,0,0,0,0,0,0,0,0,0,0,0,0,0,0,0,0,0,0,0,0,0,0,0,0,0,0,0,0,0,0,0,0,0,0,0,0,0,0,0,0,0,0,0,0,0,0,0,0,0,-1.1796,-1.1795,0,-1.1718,-1.1717,-1.1717,-1.1704,-1.1704,-1.1705,-1.1706,-1.162,-1.1617,-1.1614,0,0,0,0,0,0,0,0,0,0,0,0,0,-1.1925,-1.1923,-1.1796,-1.1795,-1.1794,-1.1719,-1.1717,-1.1716,-1.1704,-1.1704,-1.1705,-1.1706,-1.1621,-1.1617,-1.1614,0,0,0,0,0,0,0,0,0,0,0,0,0,-1.186,-1.1922,-1.1796,-1.1779,-1.1776,-1.1719,-1.1717,-1.1716,-1.1703,-1.1704,-1.1706,-1.1706,-1.1622,-1.1618,-1.1613,-1.1565,0,0,-1.16,-1.1598,0,0,0,0,0,0,0,0,-1.1864,-1.1855,-1.1782,-1.178,-1.1777,-1.1722,-1.1731,-1.1665,-1.1703,-1.1731,-1.1706,-1.1707,-1.1652,-1.1646,-1.1629,-1.1561,-1.1558,-1.1599,-1.1597,-1.1595,-1.1594,0,0,0,0,0,0,0,-1.1868,-1.1859,-1.1765,-1.1781,-1.1778,-1.1772,-1.1764,-1.1719,-1.1686,-1.1729,-1.1727,-1.1719,-1.1651,-1.1633,-1.1626,-1.1557,-1.16,-1.1596,-1.1593,-1.1591,-1.1444,-1.1443,0,0,0,0,0,0,-1.1877,-1.1863,-1.1767,-1.1763,-1.1824,-1.1769,-1.176,-1.1738,-1.1687,-1.168,-1.1718,-1.1719,-1.164,-1.1632,-1.1623,-1.1563,-1.1595,-1.1591,-1.1588,-1.1445,-1.1444,-1.1442,0,0,0,0,0,0,-1.188,-1.1869,-1.177,-1.1812,-1.1799,-1.1766,-1.1741,-1.1736,-1.1718,-1.1679,-1.1673,-1.1706,-1.164,-1.163,-1.158,-1.156,-1.1589,-1.1585,-1.1447,-1.1445,-1.1443,-1.1442,0,0,0,0,0,0,-1.1884,-1.187,-1.1853,-1.1812,-1.1797,-1.1731,-1.174,-1.1734,-1.1711,-1.1711,-1.1666,-1.1659,-1.164,-1.1587,-1.1576,-1.1554,-1.1581,-1.1448,-1.1446,-1.1444,-1.1444,-1.144,-1.1437,0,0,0,0,0,-1.1888,-1.1855,-1.1852,-1.1841,-1.1776,-1.173,-1.1721,-1.1702,-1.171,-1.1691,-1.1666,-1.1661,-1.1564,-1.1582,-1.1569,-1.1546,-1.1449,-1.1446,-1.1444,-1.1445,-1.1441,-1.1438,0,0,0,0,0,0,-1.1892,-1.1849,-1.1846,-1.1799,-1.1768,-1.1728,-1.1704,-1.1698,-1.1663,-1.1664,-1.1639,-1.1629,-1.158,-1.1558,-1.1579,-1.1496,-1.1507,-1.1501,-1.1512,-1.1508,-1.1505,-1.1511,-1.1578,0,0,0,0,0,-1.1888,-1.1856,-1.1819,-1.1781,-1.1766,-1.1738,-1.1717,-1.1705,-1.1671,-1.1657,-1.1629,-1.1594,-1.1556,-1.1531,-1.1493,-1.1441,-1.1429,-1.1418,-1.1415,-1.1413,-1.1408,-1.1376,-1.137,-1.1433,-1.1433,-1.1433,0,0,-1.1878,-1.1851,-1.1832,-1.1781,-1.1756,-1.1721,-1.1727,-1.169,-1.1663,-1.1651,-1.1603,-1.158,-1.154,-1.1488,-1.1464,-1.1468,-1.1388,-1.1409,-1.1408,-1.1404,-1.1373,-1.1367,-1.1362,-1.1431,-1.1431,-1.1431,0,0,-1.1842,-1.182,-1.1785,-1.1759,-1.1722,-1.1703,-1.1695,-1.1655,-1.164,-1.1592,-1.1581,-1.1548,-1.1483,-1.1454,-1.1431,-1.1383,-1.1376,-1.1371,-1.1355,-1.1324,-1.1319,-1.1315,-1.1296,-1.1289,-1.1367,-1.1367,-1.1367,0,-1.1834,-1.1784,-1.1767,-1.173,-1.1707,-1.1697,-1.1659,-1.1635,-1.1586,-1.1569,-1.1576,-1.1493,-1.1465,-1.1406,-1.1394,-1.1376,-1.1364,-1.1376,-1.1322,-1.1317,-1.1312,-1.1294,-1.1287,-1.1367,-1.1367,-1.1367,-1.1367,0,-1.1775,-1.174,-1.1715,-1.1671,-1.1645,-1.1608,-1.1583,-1.1558,-1.1548,-1.1528,-1.1477,-1.1444,-1.1399,-1.1384,-1.1373,-1.1322,-1.1326,-1.1327,-1.1337,-1.1306,-1.1289,-1.1282,-1.1366,-1.1366,-1.1366,-1.1366,0,0,-1.1739,-1.1686,-1.1677,-1.1656,-1.1613,-1.1584,-1.1546,-1.1504,-1.1482,-1.1449,-1.1414,-1.1359,-1.136,-1.1334,-1.1319,-1.1293,-1.1255,-1.1297,-1.1295,-1.1289,-1.1194,-1.1193,-1.1185,-1.125,-1.1249,-1.1248,-1.1197,0,-1.1697,-1.1631,-1.1614,-1.1557,-1.1522,-1.1512,-1.1478,-1.1446,-1.1426,-1.1392,-1.1369,-1.133,-1.1335,-1.1319,-1.1292,-1.1265,-1.1235,-1.1269,-1.1215,-1.1214,-1.1225,-1.1176,-1.1174,-1.1128,-1.119,-1.1189,-1.1188,0,-1.164,-1.1607,-1.1547,-1.1507,-1.1492,-1.1463,-1.1422,-1.1391,-1.1354,-1.1341,-1.1311,-1.1299,-1.1256,-1.127,-1.1208,-1.1231,-1.1208,-1.1192,-1.1189,-1.1182,-1.1198,-1.1166,-1.1113,-1.1106,-1.1177,-1.1178,-1.1179,0,-1.1618,-1.1558,-1.1514,-1.1497,-1.145,-1.1429,-1.1408,-1.1373,-1.1348,-1.1312,-1.1295,-1.1253,-1.123,-1.1197,-1.1173,-1.1185,-1.1112,-1.1124,-1.1098,-1.1098,-1.1082,-1.1083,-1.1023,-1.107,-1.107,-1.107,-1.107,0,-1.1572,-1.1535,-1.1504,-1.1476,-1.1434,-1.1413,-1.1371,-1.1349,-1.1318,-1.1284,-1.1272,-1.124,-1.1211,-1.1174,-1.1154,-1.1105,-1.1095,-1.1081,-1.1076,-1.1082,-1.1083,-1.1065,-1.1067,-1.1068,-1.1069,-1.1069,-1.1069,0,-1.154,-1.1518,-1.1469,-1.1429,-1.1418,-1.1389,-1.1353,-1.1325,-1.1304,-1.1262,-1.125,-1.1217,-1.1173,-1.1146,-1.109,-1.1077,-1.1022,-1.1019,-1.1035,-1.1033,-1.1007,-1.1009,-1.0932,-1.092,-1.0976,-1.0976,-1.0976,0,-1.1512,-1.1484,-1.1441,-1.1419,-1.1398,-1.1362,-1.1338,-1.1315,-1.1289,-1.1245,-1.1221,-1.1177,-1.1141,-1.1071,-1.104,-1.0996,-1.0991,-1.0967,-1.0984,-1.099,-1.0988,-1.099,-1.0986,-1.0963,-1.0963,-1.0962,-1.0962,0,-1.1464,-1.1454,-1.142,-1.1381,-1.1353,-1.1321,-1.1289,-1.127,-1.1242,-1.1213,-1.1169,-1.1141,-1.1084,-1.104,-1.0993,-1.0969,-1.0959,-1.0957,-1.0948,-1.0953,-1.0963,-1.0955,-1.1026,-1.0959,-1.0959,-1.0959,-1.0959,-1.096,-1.1432,-1.1405,-1.1371,-1.1333,-1.1307,-1.1277,-1.1248,-1.1225,-1.1188,-1.1142,-1.113,-1.1084,-1.1045,-1.0983,-1.0957,-1.0918,-1.0922,-1.091,-1.0906,-1.0903,-1.0902,-1.097,-1.091,-1.091,-1.091,-1.091,-1.091,0,-1.1381,-1.1359,-1.1324,-1.1281,-1.125,-1.1247,-1.121,-1.1184,-1.1144,-1.111,-1.1075,-1.1023,-1.098,-1.0946,-1.09,-1.0875,-1.087,-1.0864,-1.0865,-1.0859,-1.0902,-1.0914,-1.0869,-1.0869,-1.0869,-1.0869,-1.0869,-1.0869,-1.1352,-1.1307,-1.1292,-1.1233,-1.121,-1.1166,-1.1146,-1.1117,-1.109,-1.1034,-1.0998,-1.0977,-1.0942,-1.0894,-1.0853,-1.0843,-1.0826,-1.0821,-1.0811,-1.0852,-1.0856,-1.086,-1.0871,-1.0818,-1.0818,-1.077,-1.077,-1.0769]},{"header":{"parameterUnit":"m.s-1","parameterCategory":1,"la1":30.2991,"la2":30.254,"lo1":-89.0895,"lo2":-89.0444,"dy":0.0017,"dx":0.0017,"nx":28,"ny":28,"refTime":"2024-05-27T21:00:00:Z","depth":0,"parameterNumber":3,"parameterNumberName":"V-component_of_WINDS"},"data":[0,0,0,0,0,0,0,0,0,0,0,0,0,0,0,0,0,0,0,0,0,0,0,0,0,0,0,0,0,0,0,0,0,0,0,0,0,0,0,0,0,0,0,0,0,0,0,0,0,0,0,0,0,0,0,0,0,0,-0.6745,-0.6743,0,-0.6564,-0.6562,-0.656,-0.6499,-0.65,-0.6501,-0.6501,-0.6312,-0.6306,-0.63,0,0,0,0,0,0,0,0,0,0,0,0,0,-0.7033,-0.7028,-0.6745,-0.6742,-0.674,-0.6564,-0.6562,-0.6559,-0.6499,-0.65,-0.6501,-0.6502,-0.6314,-0.6307,-0.63,0,0,0,0,0,0,0,0,0,0,0,0,0,-0.6886,-0.7027,-0.6745,-0.6689,-0.6682,-0.6565,-0.6562,-0.6559,-0.6499,-0.65,-0.6501,-0.6502,-0.6316,-0.6308,-0.6299,-0.6223,0,0,-0.6273,-0.6269,0,0,0,0,0,0,0,0,-0.6894,-0.6875,-0.6699,-0.6693,-0.6685,-0.6555,-0.6594,-0.6446,-0.6498,-0.6568,-0.6501,-0.6503,-0.6392,-0.6377,-0.634,-0.6214,-0.6206,-0.6272,-0.6267,-0.6263,-0.626,0,0,0,0,0,0,0,-0.6905,-0.6883,-0.6673,-0.6697,-0.6688,-0.6671,-0.6652,-0.6566,-0.6476,-0.6562,-0.6557,-0.6537,-0.6388,-0.6349,-0.6335,-0.6203,-0.6272,-0.6264,-0.6259,-0.6256,-0.6004,-0.6003,0,0,0,0,0,0,-0.6925,-0.6892,-0.6679,-0.6668,-0.6795,-0.6665,-0.6643,-0.6596,-0.6476,-0.6459,-0.6536,-0.6535,-0.6363,-0.6346,-0.6328,-0.623,-0.6263,-0.6255,-0.625,-0.6005,-0.6004,-0.6002,0,0,0,0,0,0,-0.6931,-0.6906,-0.6686,-0.6778,-0.6749,-0.6659,-0.6606,-0.6591,-0.6552,-0.6457,-0.644,-0.6513,-0.6363,-0.6341,-0.625,-0.6222,-0.6251,-0.6243,-0.6007,-0.6005,-0.6003,-0.6033,0,0,0,0,0,0,-0.694,-0.6909,-0.688,-0.6778,-0.6744,-0.6611,-0.6605,-0.6587,-0.6538,-0.6535,-0.6431,-0.6414,-0.6362,-0.6263,-0.6241,-0.6211,-0.6236,-0.6009,-0.6006,-0.6004,-0.6034,-0.6032,-0.6031,0,0,0,0,0,-0.695,-0.6895,-0.6879,-0.6854,-0.6706,-0.661,-0.659,-0.6533,-0.6536,-0.6505,-0.6444,-0.6418,-0.623,-0.6254,-0.6229,-0.6196,-0.6011,-0.6007,-0.6004,-0.6035,-0.6033,-0.6031,0,0,0,0,0,0,-0.6994,-0.6881,-0.6861,-0.6772,-0.6701,-0.66,-0.6559,-0.6532,-0.6458,-0.6457,-0.6388,-0.6365,-0.6279,-0.6229,-0.6258,-0.6116,-0.6119,-0.611,-0.6151,-0.6148,-0.6146,-0.6159,-0.6229,0,0,0,0,0,-0.6994,-0.6927,-0.683,-0.676,-0.6726,-0.6649,-0.6605,-0.6567,-0.649,-0.646,-0.6392,-0.6317,-0.6241,-0.6192,-0.6117,-0.6028,-0.6003,-0.5993,-0.5991,-0.599,-0.5982,-0.593,-0.5923,-0.5991,-0.5991,-0.5991,0,0,-0.6991,-0.6921,-0.6882,-0.6768,-0.6708,-0.6638,-0.6624,-0.6551,-0.6498,-0.6448,-0.6357,-0.6306,-0.6218,-0.6127,-0.6084,-0.6082,-0.5959,-0.5986,-0.5986,-0.5978,-0.5926,-0.5919,-0.5914,-0.5989,-0.5989,-0.5989,0,0,-0.695,-0.6892,-0.6826,-0.6768,-0.6679,-0.6629,-0.6614,-0.6516,-0.648,-0.6389,-0.635,-0.6286,-0.6157,-0.6095,-0.6047,-0.5985,-0.5957,-0.5963,-0.5952,-0.5902,-0.5896,-0.5891,-0.5867,-0.5859,-0.5956,-0.5956,-0.5956,0,-0.6958,-0.6852,-0.6796,-0.6725,-0.6674,-0.6629,-0.6561,-0.6507,-0.6397,-0.6363,-0.6364,-0.6201,-0.6139,-0.6032,-0.6018,-0.5981,-0.596,-0.5973,-0.5902,-0.5896,-0.5891,-0.5866,-0.5858,-0.5958,-0.5957,-0.5957,-0.5957,0,-0.6865,-0.6793,-0.675,-0.6647,-0.6593,-0.6524,-0.6456,-0.6407,-0.6375,-0.6324,-0.6231,-0.6155,-0.6064,-0.6036,-0.6003,-0.5925,-0.5926,-0.5916,-0.5917,-0.5886,-0.5862,-0.5853,-0.5959,-0.5959,-0.5958,-0.5958,0,0,-0.6843,-0.6712,-0.6697,-0.6649,-0.6549,-0.6491,-0.642,-0.6332,-0.6291,-0.6218,-0.6155,-0.6048,-0.6038,-0.5983,-0.5943,-0.59,-0.5853,-0.5894,-0.5891,-0.5886,-0.5759,-0.5765,-0.5755,-0.5835,-0.5834,-0.5832,-0.5765,0,-0.6787,-0.6659,-0.6606,-0.6502,-0.6433,-0.639,-0.6328,-0.6259,-0.621,-0.6144,-0.6089,-0.6013,-0.6007,-0.5974,-0.5929,-0.5868,-0.5826,-0.5873,-0.5773,-0.577,-0.5793,-0.5743,-0.5749,-0.569,-0.5756,-0.5754,-0.5753,0,-0.6703,-0.6631,-0.6521,-0.6429,-0.6398,-0.6343,-0.6258,-0.6196,-0.6117,-0.6084,-0.6025,-0.5988,-0.591,-0.592,-0.581,-0.5843,-0.58,-0.5764,-0.5761,-0.5746,-0.5757,-0.5724,-0.567,-0.566,-0.5738,-0.5739,-0.574,0,-0.6695,-0.6571,-0.6488,-0.6449,-0.6341,-0.6303,-0.6256,-0.6178,-0.6128,-0.6054,-0.6021,-0.5939,-0.5892,-0.5829,-0.577,-0.5782,-0.5665,-0.567,-0.5634,-0.5635,-0.5607,-0.5609,-0.5542,-0.5586,-0.5586,-0.5586,-0.5586,0,-0.6636,-0.6569,-0.6483,-0.6431,-0.6355,-0.6296,-0.6222,-0.6171,-0.6103,-0.604,-0.5998,-0.594,-0.5867,-0.5799,-0.5753,-0.5668,-0.5648,-0.5618,-0.5606,-0.5619,-0.5623,-0.5587,-0.5589,-0.5584,-0.5584,-0.5585,-0.5585,0,-0.6612,-0.6552,-0.6458,-0.6365,-0.6339,-0.6287,-0.6205,-0.6153,-0.6104,-0.6025,-0.6003,-0.5924,-0.5842,-0.5778,-0.5671,-0.564,-0.5549,-0.5538,-0.5576,-0.5569,-0.5535,-0.5538,-0.5439,-0.5422,-0.5482,-0.5481,-0.5481,0,-0.6576,-0.6523,-0.6425,-0.6381,-0.6334,-0.6264,-0.6213,-0.6154,-0.6103,-0.6009,-0.5968,-0.5884,-0.5812,-0.5683,-0.5615,-0.5533,-0.5516,-0.5488,-0.5503,-0.5519,-0.5512,-0.5514,-0.5508,-0.5485,-0.5484,-0.5484,-0.5484,0,-0.6518,-0.6491,-0.6421,-0.6341,-0.6282,-0.6216,-0.6148,-0.6114,-0.6042,-0.5987,-0.5903,-0.5848,-0.574,-0.5655,-0.5566,-0.5516,-0.5486,-0.5481,-0.5467,-0.5478,-0.5501,-0.5485,-0.5567,-0.5482,-0.5482,-0.5482,-0.5482,-0.5482,-0.6484,-0.6435,-0.6358,-0.6281,-0.6225,-0.6163,-0.6109,-0.6054,-0.5984,-0.5892,-0.5861,-0.5775,-0.5697,-0.5574,-0.5524,-0.5454,-0.5452,-0.5434,-0.5428,-0.5423,-0.5423,-0.5517,-0.5438,-0.5438,-0.5438,-0.5438,-0.5438,0,-0.642,-0.637,-0.63,-0.6208,-0.6147,-0.6129,-0.6054,-0.6003,-0.5928,-0.5859,-0.5791,-0.5694,-0.5613,-0.554,-0.5455,-0.5413,-0.5397,-0.5392,-0.5392,-0.5381,-0.5431,-0.545,-0.5406,-0.5406,-0.5406,-0.5406,-0.5406,-0.5406,-0.638,-0.6296,-0.6261,-0.6148,-0.6097,-0.6013,-0.5971,-0.5914,-0.5858,-0.5753,-0.5686,-0.564,-0.5568,-0.5478,-0.5402,-0.5383,-0.5351,-0.5349,-0.5326,-0.5373,-0.5377,-0.5381,-0.5398,-0.5344,-0.5344,-0.528,-0.528,-0.5279]}]]